Погода в Алжире

Алжир     36°46′19″N   3°03′35″E
темп.,
°C
ветер,
м/с
пор.,
м/с
влажн.,
%
обл.,
%
осадки,
мм/ч
давл.,
гПа
погр.,
м
26 февраля, пт
пт2601:00+14в34810 0.0 1027172
04:00+14всв33800 0.0 1027136
07:00+13в22800 0.0 1026108
10:00+16всв22650 0.0 1027310
13:00+18св32550 0.0 1027438
16:00+17св55640 0.0 1025382
19:00+15всв57811 0.0 1025352
22:00+15всв45870 0.0 1026315
27 февраля, сб
сб2701:00+14всв22901 0.0 1025138
04:00+13всв12923 0.0 1024143
07:00+13в22918 0.0 1024171
10:00+15в34748 0.0 1024430
13:00+17св55664 0.0 1023472
16:00+16всв687185 0.0 1022523
19:00+15всв7107793 0.0 1022526
22:00+14всв697965 0.0 1022553
28 февраля, вс
вс2801:00+14всв468232 0.0 1022314
04:00+13в34850 0.0 1021189
07:00+13в46830 0.0 1021242
10:00+15всв45650 0.0 1022285
13:00+18всв55570 0.0 1021347
16:00+17всв811650 0.0 1019404
19:00+15всв812710 0.0 1020320
22:00+15в586462 0.0 1021198
1 марта, пн
пн101:00+15вюв235180 0.0 102157
04:00+15вюв334463 0.0 102062
07:00+14юв464343 0.0 1020139
10:00+17вюв693441 0.0 1021345
13:00+21вюв582970 0.0 1020841
16:00+20в6838100 0.0 1018947
19:00+18всв796198 0.0 1018267
22:00+17в456496 0.0 1020138
2 марта, вт
вт201:00+17юв124498 0.0 102039
04:00+17ююв2339100 0.0 102068
07:00+16ююв2243100 0.0 102161
10:00+18вюв3538100 0.0 1022204
13:00+21в3533100 0.0 1022573
16:00+19всв785555 0.0 1021402
19:00+16всв7106974 0.0 1022316
22:00+16всв7107296 0.0 1024413